+ View the NASA Portal
+ Center for Near-Earth Object Studies
IMPORTANT:
The SSD Announcement email list is now available. Major changes are coming in the near future, including possible hostname and/or URL changes. To be notified of such changes, subscribe to this email list.
Please visit
this page
for more details.
Don't show this message again
JPL Small-Body Database Browser
Search:
[
help
]
344351 (2001 WV62)
Classification:
Main-belt Asteroid
SPK-ID:
2344351
[
Ephemeris
|
Orbit Diagram
|
Orbital Elements
|
Mission Design
|
Physical Parameters
|
Discovery Circumstances
|
Close-Approach Data
]
[ show orbit diagram ]
Orbital Elements at Epoch 2458600.5 (2019-Apr-27.0) TDB
Reference:
JPL 9
(heliocentric ecliptic J2000)
Element
Value
Uncertainty (1-sigma)
Units
e
.1114029792260182
6.5027e-08
a
3.143216994862339
5.3352e-08
au
q
2.793053257280822
2.0605e-07
au
i
4.303802075060184
7.3966e-06
deg
node
249.7097997072472
0.00012134
deg
peri
225.6890623036736
0.0001277
deg
M
1.673853247610456
4.2224e-05
deg
t
p
2458591.035997391674
(2019-Apr-17.53599739)
0.00023865
TDB
period
2035.447817101681
5.57
5.1824e-05
1.419e-07
d
yr
n
.1768652563702723
4.5031e-09
deg/d
Q
3.493380732443856
5.9296e-08
au
Orbit Determination Parameters
# obs. used (total)
132
data-arc span
8005 days (21.92 yr)
first obs. used
1997-01-15
last obs. used
2018-12-16
planetary ephem.
DE431
SB-pert. ephem.
SB431-N16
condition code
0
norm. resid. RMS
.60043
source
ORB
producer
Otto Matic
solution date
2019-Jul-13 18:05:48
Additional Information
Earth MOID
= 1.81192 au
Jupiter MOID
= 1.6321 au
T_jup
= 3.196
[ show covariance matrix ]
[
Ephemeris
|
Orbit Diagram
|
Orbital Elements
|
Mission Design
|
Physical Parameters
|
Discovery Circumstances
|
Close-Approach Data
]
Physical Parameter Table
Parameter
Symbol
Value
Units
Sigma
Reference
Notes
absolute magnitude
H
15.9
n/a
MPO248726
344351 (2001 WV62)
Discovered 2001-Nov-19 by LINEAR at Socorro
Reference:
20121128/Numbers.arc
Last Updated:
2012-12-03
[ show close-approach data ]
Alternate Designations
2001 WV62
= 1997 AV23 = 2001 WF103
[
Ephemeris
|
Orbit Diagram
|
Orbital Elements
|
Mission Design
|
Physical Parameters
|
Discovery Circumstances
|
Close-Approach Data
]
2019-Dec-15 03:06 UT
(server date/time)
Site Manager:
Ryan S. Park
Webmaster
:
Alan B. Chamberlin